Regional Weather Roundup
Issued by NWS

Home | Current Version | Previous Version | Text Only | Print | Product List | Glossary Off
Versions: 1 2 3 4 5 6 7 8 9 10 11 12 13 14 15 16 17 18 19 20 21 22 23 24 25 26 27 28 29 30 31 32 33 34 35 36 37 38 39 40 41 42 43 44 45 46 47 48 49 50

000
ASUS43 KFSD 290602
RWRSD

WEATHER ROUNDUP FOR SOUTH DAKOTA
NATIONAL WEATHER SERVICE SIOUX FALLS SD
1200 AM CST MON DEC 29 2014

NOTE: "FAIR" INDICATES FEW OR NO CLOUDS BELOW 12,000 FEET WITH NO
SIGNIFICANT WEATHER AND/OR OBSTRUCTIONS TO VISIBILITY.


SDZ001>005-009-010-012>017-290700-
NORTHWEST AND NORTH CENTRAL SOUTH DAKOTA

CITY           SKY/WX    TMP DP  RH WIND       PRES   REMARKS
BUFFALO          N/A      9   4  80 NE16      30.18R WCI  -8
FAITH            N/A      9   5  84 NE12      30.28R WCI  -6
MOBRIDGE       CLOUDY     8   1  73 NE13      30.36R WCI  -8
$$

SDZ012>016-024>037-041>051-057-063-072>074-290700-
SOUTHWEST AND SOUTH CENTRAL SOUTH DAKOTA

CITY           SKY/WX    TMP DP  RH WIND       PRES   REMARKS
RAPID CTY ARPT LGT SNOW  15  11  83 NE10      30.19R FOG     WCI   2
PIERRE         MIX PCPN   7   2  80 NE16      30.32R WCI -11
CUSTER         LGT SNOW  12   9  87 NE7       29.99R FOG     WCI   1
ELLSWORTH AFB  FLURRIES  15  12  88 NE6       30.18  WCI   6
PHILIP         LGT SNOW  14  10  84 NE12      30.25R FOG     WCI   0
PINE RIDGE     LGT SNOW  16  11  80 NE9       30.11R WCI   4
WINNER         LGT SNOW  18  14  84 NE12      30.24S WCI   5
$$

SDZ004>011-016>023-039-040-290700-
NORTHEAST SOUTH DAKOTA

CITY           SKY/WX    TMP DP  RH WIND       PRES   REMARKS
ABERDEEN       CLOUDY     4  -3  73 NE15      30.44R WCI -14
WATERTOWN      CLOUDY     4  -1  80 N10       30.34R WCI -11
SISSETON         N/A      1  -5  75 N16       30.45R WCI -19
$$

SDZ017-020-022-023-036>040-048>070-290700-
SOUTHEAST SOUTH DAKOTA

CITY           SKY/WX    TMP DP  RH WIND       PRES   REMARKS
SIOUX FALLS    LGT SNOW  13   9  84 NE13      30.31R FOG     WCI  -2
HURON          LGT SNOW  10   6  84 NE12      30.36R FOG     WCI  -5
MITCHELL       LGT SNOW  16  13  88 NE14      30.34R FOG     WCI   2
YANKTON        MOCLDY    19  16  86 NE14      30.29S WCI   6
$$

ABBREVIATIONS USED IN REMARKS
   TC - TEMPERATURE IN CELSIUS
  WCI - WIND CHILL INDEX
   HX - HEAT INDEX
  VSB - VISIBILITY




USA.gov is the U.S. government's official web portal to all federal, state and local government web resources and services.